This is the latest recevied weather packets stored in our database for station/object K9MWD. If no packets are shown the sender has not sent any weather packets the latest 10 day(s).
| Time | Temp. | Humidity | Pressure | Rain* | Wind** | Luminosity | Snow |
|---|---|---|---|---|---|---|---|
| 1787926306 | 28.89° C | 71% | 1018 hPa | 0 mm | - | 323 W/m² | - |
| 1787926001 | 28.33° C | 70% | 1018 hPa | 0 mm | - | 304 W/m² | - |
| 1787925696 | 28.33° C | 72% | 1018 hPa | 0 mm | - | 287 W/m² | - |
| 1787925396 | 27.78° C | 71% | 1018 hPa | 0 mm | - | 267 W/m² | - |
| 1787925095 | 27.78° C | 71% | 1017.9 hPa | 0 mm | - | 248 W/m² | - |
| 1787924794 | 27.78° C | 71% | 1018 hPa | 0 mm | - | 230 W/m² | - |
| 1787924494 | 27.78° C | 71% | 1018 hPa | 0 mm | - | 209 W/m² | - |
| 1787924185 | 27.22° C | 72% | 1018 hPa | 0 mm | - | 191 W/m² | - |
| 1787923880 | 26.67° C | 74% | 1017.8 hPa | 0 mm | - | 176 W/m² | - |
| 1787923579 | 27.22° C | 71% | 1017.7 hPa | 0 mm | - | 159 W/m² | - |
| 1787923275 | 26.67° C | 72% | 1017.8 hPa | 0 mm | - | 143 W/m² | - |
| 1787922970 | 26.67° C | 72% | 1017.9 hPa | 0 mm | - | 128 W/m² | - |
| 1787922670 | 26.67° C | 73% | 1017.8 hPa | 0 mm | - | 115 W/m² | - |
| 1787922369 | 26.11° C | 73% | 1017.8 hPa | 0 mm | - | 102 W/m² | - |
| 1787922067 | 25.56° C | 74% | 1017.7 hPa | 0 mm | - | 90 W/m² | - |
| 1787921767 | 25.56° C | 74% | 1017.9 hPa | 0 mm | - | 76 W/m² | - |
| 1787921467 | 25.56° C | 75% | 1017.6 hPa | 0 mm | - | 67 W/m² | - |
| 1787921162 | 25° C | 76% | 1017.7 hPa | 0 mm | - | 57 W/m² | - |
| 1787920857 | 25° C | 77% | 1017.7 hPa | 0 mm | - | 48 W/m² | - |
| 1787920556 | 24.44° C | 77% | 1017.6 hPa | 0 mm | - | 40 W/m² | - |
| 1787920252 | 24.44° C | 78% | 1017.5 hPa | 0 mm | - | 33 W/m² | - |
| 1787919944 | 24.44° C | 79% | 1017.4 hPa | 0 mm | - | 26 W/m² | - |
| 1787919643 | 24.44° C | 79% | 1017.5 hPa | 0 mm | - | 21 W/m² | - |
| 1787919339 | 23.89° C | 79% | 1017.5 hPa | 0 mm | - | 15 W/m² | - |
| 1787919034 | 23.89° C | 80% | 1017.3 hPa | 0 mm | - | 11 W/m² | - |
* Rain latest hour (hover to see other rain measurements)
** Current wind speed in m/s (hover to see current wind gust speed)